Terminal Aerodrome Forecast
Issued by NWS

Home | Current Version | Previous Version | Text Only | Print | Product List | Glossary On
Versions: 1 2 3 4 5 6 7 8 9 10 11 12 13 14 15 16 17 18 19 20 21 22 23 24 25 26 27 28 29 30 31 32 33 34 35 36 37 38 39 40 41 42 43 44 45 46
000
FTUS43 KDTX 252334
TAFPTK
TAF
KPTK 252334Z 2600/2624 21010KT P6SM SCT025 BKN250
      TEMPO 2600/2602 BKN025
     FM261600 21013G20KT P6SM OVC150=

USA.gov is the U.S. government's official web portal to all federal, state and local government web resources and services.